SCP
0 0 0 0 0 0 0 0 0 0 0 0 0 0 0 0 0 0 0 0 0 0 -0 0 0 0 -0 -0 0 0 0 0 0 0 0 0 0 0 0 0 0 0 0
0 0 0 0 0 0 0 0 0 0 0 0 0 0 0 0 0 0 0 0 0 0 0 0 0 -0 0 0 0 0 0 0 0 0 0 0 0 0 0 0 0 0 0
0 0 0 0 0 0 0 0 0 0 0 0 0 0 0 0 0 0 0 0 0 0 0 -0 -0 0 0 0 0 0 0 0 0 0 0 0 0 0 0 0 0 0 0
0 0 0 0 0 0 0 0 0 0 0 0 0 0 0 0 0 0 0 0 0 -0 0 0 0 0 0 0 0 0 0 0 0 0 0 0 0 0 0 0 0 0 0
0 0 0 0 0 0 0 0 0 0 0 0 0 0 0 0 0 0 0 0 0 -0 -0 0 0 -0 0 0 0 0 0 0 0 0 0 0 0 0 0 0 0 0 0
0 0 0 0 0 0 0 0 0 0 0 0 0 0 0 0 0 0 0 0 0 0 0 -0 0 0 0 0 0 0 0 0 0 0 0 0 0 0 0 0 0 0 0
0 0 0 0 0 0 0 0 0 0 0 0 0 0 0 0 0 0 0 0 0 0 -0 -0 0 0 0 0 0 0 0 0 0 0 0 0 0 0 0 0 0 0 0
0 0 0 0 0 0 0 0 0 0 0 0 0 0 0 0 0 0 0 0 0 -0 -0 0 0 0 0 0 0 0 0 0 0 0 0 0 0 0 0 -0 -0 0 0
0 0 0 0 0 0 0 0 0 0 0 0 0 0 0 0 0 0 0 0 0 0 0 0 0 0 0 0 0 0 0 0 0 0 0 0 0 0 0 0 0 0 0
0 0 0 -0 0 -0 0 0 0 0 0 -0 0 0 0 0 0 0 0 0 0 0 0 0 0 0 0 0 0 0 0 0 0 0 0 0 0 0 0 0 0 0 0
0 0 0 0 -0 -0 0 0 0 0 0 0 0 0 0 0 0 0 0 0 0 0 0 0 0 0 0 -0 0 0 0 0 0 0 0 0 0 0 0 0 0 0 0
-0 -0 -0 -0 -0 -0 0 0 0 0 0 0 0 0 0 0 0 0 0 0 0 0 0 0 0 0 0 0 0 0 0 0 0 0 0 0 0 0 0 0 0 0 0
-0 -0 -0 -0 -0 -0 0 0 0 0 0 0 0 0 0 0 0 0 0 0 0 0 0 0 0 0 0 0 0 0 0 0 0 0 0 0 0 0 0 0 0 0 0
-0 -0 -0 -0 -0 -0 0 0 0 0 0 0 0 0 0 0 0 0 0 0 0 0 0 0 0 0 0 0 0 0 0 0 0 0 0 0 0 0 0 0 0 0 0
-0 -0 -0 -0 -0 -0 0 0 0 0 -0 0 0 0 0 0 -0 0 -0 -0 -0 0 0 0 0 0 0 0 0 0 0 0 0 0 0 0 0 0 -0 -0 -0 0 0
-0 -0 -0 -0 -0 -0 -0 0 0 0 -0 -0 0 0 0 -0 0 0 -0 0 0 0 0 -0 0 0 0 0 0 0 0 0 0 0 0 0 -0 -0 -0 0 0 0 0
-0 -0 -0 -0 -0 -0 -0 -0 0 0 0 -0 0 0 0 -0 0 0 0 0 0 0 0 0 0 0 0 0 0 -0 0 0 0 0 -0 0 0 -0 -0 -0 -0 0 0
-0 -0 -0 -0 -0 -0 -0 -0 -0 0 0 -0 -0 0 0 0 0 0 0 0 0 0 0 0 0 0 0 0 0 0 0 0 0 0 0 0 0 -0 0 0 0 0 0
-0 -0 -0 -0 -0 -0 -0 -0 -0 -0 -0 0 -0 -0 0 0 0 0 0 0 0 0 0 0 0 0 0 -0 0 0 0 0 -0 -0 -0 0 0 -0 0 -0 0 -0 -0
-0 -0 -0 -0 -0 -0 -0 -0 -0 -0 0 0 -0 -0 0 0 0 0 0 0 0 0 0 0 0 0 0 0 0 0 0 0 0 0 0 0 0 0 0 -0 -0 -0 -0
-0 -0 -0 -0 -0 -0 -0 -0 -0 -0 0 0 0 -0 0 -0 0 0 0 0 0 0 0 0 0 0 0 0 0 0 0 0 0 0 0 -0 0 0 0 0 -0 -0 -0
-0 -0 -0 0 0 -0 -0 -0 -0 -0 0 0 -0 -0 0 -0 -0 -0 -0 -0 0 0 0 0 0 -0 -0 -0 -0 -0 -0 -0 0 -0 0 0 0 0 0 0 0 0 0
-0 0 0 0 0 -0 -0 -0 -0 -0 0 0 0 -0 0 0 -0 -0 -0 0 0 0 0 0 0 0 -0 -0 -0 -0 -0 -0 -0 0 -0 -0 -0 -0 -0 -0 0 0 0
0 -0 0 -0 -0 -0 -0 -0 -0 -0 -0 0 0 0 0 0 -0 -0 0 0 0 0 0 0 0 0 0 -0 -0 -0 0 0 0 -0 -0 -0 0 0 0 0 0 0 0
0 0 0 0 -0 -0 -0 -0 -0 0 -0 0 0 0 0 0 0 0 -0 0 0 -0 -0 -0 -0 -0 -0 -0 -0 -0 -0 -0 -0 -0 0 0 0 0 0 0 0 0 0
0 0 0 0 0 0 0 0 0 0 0 0 0 0 0 0 0 0 0 0 0 -0 -0 -0 -0 0 -0 -0 -0 -0 -0 -0 -0 0 0 0 0 0 0 0 0 0 0
Wind_Speed_500mb
61 56 51 45 36 25 20 16 11 9 10 3 12 24 31 29 26 20 17 18 17 18 19 12 8 8 13 27 31 40 40 35 37 35 38 33 28 35 46 49 55 49 62
61 54 52 46 37 26 21 16 13 8 14 6 10 23 34 32 25 21 18 19 18 16 20 12 10 12 14 25 31 37 36 37 38 44 45 29 29 36 49 54 57 56 57
67 61 57 49 39 28 22 18 13 15 7 2 5 13 22 23 12 14 16 16 9 11 13 13 18 19 18 21 26 36 37 37 42 39 32 23 19 49 52 56 63 64 67
61 63 60 52 40 27 21 19 20 13 7 5 12 18 25 31 26 14 17 9 2 11 17 23 23 18 20 23 26 33 29 31 37 37 24 24 47 34 45 66 73 67 68
64 65 62 48 34 27 24 25 19 9 12 7 18 21 26 29 19 4 8 8 4 12 21 26 30 27 27 23 24 26 31 28 35 33 35 30 50 29 53 63 74 66 69
66 64 52 41 32 29 30 26 16 10 5 2 12 17 26 21 15 10 8 13 2 13 26 32 33 27 30 23 17 23 38 27 39 30 31 34 52 45 69 67 73 67 63
65 62 55 47 38 36 30 24 18 11 7 6 8 13 15 17 15 13 9 11 9 14 32 35 41 30 28 27 22 23 22 30 33 33 38 43 48 55 83 69 75 76 69
66 62 55 49 41 37 32 22 19 13 12 9 1 9 13 10 17 15 15 7 9 18 29 33 34 26 26 26 23 30 29 33 34 38 43 50 50 69 78 85 93 68 67
63 60 53 47 42 35 32 24 20 13 13 8 5 3 15 10 13 13 19 15 17 22 22 27 26 29 27 29 32 33 37 36 44 46 45 55 69 77 81 78 83 82 53
60 59 56 47 40 35 29 23 18 19 16 4 14 6 7 12 16 14 16 15 22 16 19 23 25 32 38 39 37 34 41 44 46 48 49 52 60 71 77 80 76 64 70
63 61 57 46 40 35 28 28 23 17 18 13 14 10 7 7 14 18 16 17 20 19 26 26 33 37 38 41 41 43 43 43 45 43 39 43 56 62 72 72 55 46 49
63 61 56 51 40 36 28 27 26 23 17 14 19 14 11 4 13 15 18 11 11 21 27 27 39 40 45 43 41 48 45 45 40 35 40 46 56 70 69 65 51 57 44
59 60 59 53 43 37 34 24 29 27 18 23 17 19 13 9 17 22 22 20 19 27 32 32 36 40 42 38 36 42 38 33 30 25 40 53 62 56 51 50 55 49 37
64 64 63 54 46 40 38 29 30 29 25 29 16 24 12 18 24 28 25 31 31 31 35 34 33 35 30 29 29 34 32 23 32 36 49 52 54 59 56 49 47 49 34
65 66 64 57 49 45 42 35 27 34 30 30 18 30 23 30 25 20 34 36 36 36 35 33 35 34 24 25 33 37 40 36 38 44 42 45 54 58 57 48 49 40 33
70 67 64 59 55 51 47 43 32 39 33 32 23 29 34 24 28 21 28 23 32 40 29 26 29 33 34 32 35 39 38 44 41 37 42 45 50 52 46 42 35 31 34
77 71 70 65 59 56 49 47 38 44 35 34 26 22 41 33 32 33 27 23 22 26 22 20 31 38 37 37 40 50 43 40 39 47 48 47 49 51 42 34 37 32 29
80 76 74 67 60 55 51 48 44 46 37 36 30 24 42 36 33 36 33 27 25 21 14 30 31 35 37 37 38 36 32 37 37 37 38 43 46 42 42 44 32 31 32
81 80 77 70 64 59 53 53 50 48 40 42 38 33 41 37 37 36 37 36 27 18 19 31 36 40 47 37 34 34 34 37 35 29 28 33 32 37 36 42 46 37 35
75 80 77 73 70 64 60 59 56 52 43 43 47 33 36 41 39 37 30 26 37 28 21 24 30 37 44 41 39 39 45 38 35 33 25 36 36 35 35 42 44 36 38
72 73 77 77 72 68 65 64 61 58 46 38 45 37 38 43 34 39 33 22 33 40 30 23 24 36 43 42 38 39 35 41 36 33 31 36 34 36 36 33 32 30 28
73 77 80 78 72 71 66 65 67 58 49 44 46 44 38 43 41 40 37 29 29 37 38 34 25 27 41 44 42 38 32 26 34 35 34 34 38 41 40 36 35 29 22
73 77 79 80 76 72 67 67 63 59 53 49 52 48 40 44 43 43 40 37 31 40 40 38 35 29 32 45 47 43 31 28 29 28 34 39 43 46 41 35 29 23 21
74 76 81 82 79 74 65 57 64 65 59 54 56 53 49 48 45 43 43 41 36 48 43 41 44 37 37 45 55 56 42 37 34 32 40 40 40 40 35 31 29 25 18
71 70 75 80 73 73 69 64 65 68 66 59 55 63 54 51 47 47 44 37 33 45 47 46 46 41 43 43 55 63 55 49 41 39 40 43 43 42 40 36 26 18 18
48 66 65 77 72 70 70 68 67 71 72 67 63 69 63 59 48 47 45 34 33 30 46 30 32 33 32 28 41 58 58 55 51 49 48 43 41 39 35 30 22 31 27
Wind_Direction_500mb
187 184 198 201 209 213 218 239 246 276 283 313 327 332 344 333 311 318 325 323 293 254 246 238 243 217 205 189 194 187 189 183 188 179 177 174 180 181 190 181 167 172 172
167 185 192 197 209 205 208 222 232 244 284 276 307 316 335 333 314 314 308 315 300 250 216 212 194 167 168 182 184 196 187 193 187 174 163 171 172 177 177 178 161 164 174
173 182 190 194 200 200 197 205 213 228 280 146 318 319 332 350 335 315 333 323 283 188 183 174 168 160 168 173 188 190 198 188 188 180 174 149 167 160 174 174 159 159 164
182 187 190 190 197 195 192 201 203 241 262 301 321 350 8 348 346 315 336 356 112 154 155 155 150 133 145 164 168 176 184 191 188 183 194 187 169 156 144 160 159 162 163
186 189 188 186 188 186 194 187 216 233 236 313 355 4 347 351 357 350 6 27 130 162 156 159 145 141 134 154 157 158 173 177 184 193 179 171 156 163 146 134 156 167 169
180 182 179 179 179 183 194 197 201 214 250 119 350 340 1 11 38 69 38 22 160 160 162 165 162 159 146 154 155 153 167 166 181 174 182 171 154 159 149 135 144 151 156
171 171 174 174 173 183 195 195 188 229 167 164 308 340 5 25 39 31 37 27 90 146 167 167 170 165 162 161 168 157 156 158 167 163 165 140 143 148 165 145 143 139 149
168 171 173 172 176 185 195 201 183 188 150 169 14 344 15 42 41 42 44 40 99 136 155 168 171 174 161 170 161 156 163 157 163 159 154 163 155 157 164 153 148 141 155
165 166 170 175 179 189 196 187 182 190 158 200 109 50 19 56 43 38 35 69 99 136 146 160 170 172 173 158 160 162 164 162 155 155 156 150 156 164 164 161 154 155 147
164 167 172 175 181 191 191 173 180 179 179 170 118 133 48 49 35 37 32 91 100 110 143 154 151 152 152 154 157 155 153 142 144 148 149 153 161 162 165 159 160 158 161
165 169 171 175 182 190 190 178 182 184 183 158 148 135 104 57 35 55 68 104 104 90 131 135 146 147 147 153 155 149 147 150 147 145 153 152 159 158 164 153 155 149 165
167 170 171 174 180 189 196 187 182 182 183 169 141 133 145 115 86 80 72 90 126 115 130 135 144 145 144 151 158 158 149 139 137 151 156 157 161 158 151 157 159 155 158
167 172 174 177 186 190 195 189 177 185 174 177 152 138 162 118 104 90 74 75 130 138 133 137 143 146 147 150 161 171 169 162 151 144 160 161 163 167 173 168 161 161 147
173 176 177 179 187 191 196 192 177 187 172 184 163 150 155 124 106 101 89 82 107 133 130 126 136 136 141 146 161 168 168 162 152 146 149 150 154 154 159 163 154 158 160
176 181 181 181 187 190 193 196 179 185 176 186 168 153 139 125 119 124 98 97 98 118 120 125 143 148 151 161 169 159 152 140 138 133 140 145 153 153 147 144 150 151 162
180 184 185 185 187 191 191 194 184 188 179 190 176 163 155 149 135 124 124 113 107 118 122 118 135 139 135 129 143 147 150 154 153 148 146 141 143 142 142 136 145 158 166
182 187 187 190 190 192 191 194 188 189 181 191 179 164 156 160 148 140 137 155 142 120 118 134 128 129 136 140 134 141 140 134 138 147 141 142 147 159 157 156 159 171 175
185 189 189 191 193 193 193 193 190 193 181 190 189 173 162 170 169 163 156 150 152 147 129 148 148 135 131 138 143 147 136 136 139 146 147 149 151 158 165 162 172 175 175
188 192 194 190 190 192 190 191 191 195 185 191 196 182 176 182 174 176 177 171 145 150 139 153 150 149 141 139 135 145 147 145 143 145 152 157 153 157 169 177 177 175 182
186 191 191 190 190 192 190 190 192 197 193 190 200 189 181 186 179 192 190 185 188 167 168 159 165 160 153 155 154 154 151 155 159 168 171 182 180 176 177 177 185 185 192
182 189 188 192 193 191 190 191 193 200 197 189 201 193 187 194 186 193 200 199 183 176 173 182 178 182 175 168 169 172 176 178 175 185 186 180 179 180 174 171 177 178 179
177 185 186 193 194 194 193 194 196 200 199 192 200 196 187 193 192 199 205 210 190 179 179 201 198 190 191 192 183 185 189 189 195 195 190 180 179 180 178 178 177 181 186
177 184 190 192 193 196 199 198 199 195 197 194 202 199 189 194 201 203 210 212 203 184 192 198 208 210 199 194 193 192 197 196 185 180 180 177 178 179 179 182 190 200 214
177 184 189 191 193 197 203 208 198 194 196 197 206 202 193 195 199 209 219 221 214 198 197 201 206 214 205 199 197 196 198 190 181 175 177 178 182 184 188 196 205 216 225
178 182 189 192 196 200 206 206 201 194 197 196 210 204 204 202 203 215 223 230 229 212 203 208 219 216 209 202 201 197 195 192 190 187 187 190 195 199 204 212 223 243 219
172 184 192 193 194 202 204 205 202 199 197 198 208 205 205 204 211 213 212 225 227 206 209 210 211 212 221 207 206 203 199 196 195 194 200 200 204 209 216 230 208 179 193
Wind_Speed_850mb
61 56 51 45 36 25 20 16 11 9 10 3 12 24 31 29 26 20 17 18 17 18 19 12 8 8 13 27 31 40 40 35 37 35 38 33 28 35 46 49 55 49 62
61 54 52 46 37 26 21 16 13 8 14 6 10 23 34 32 25 21 18 19 18 16 20 12 10 12 14 25 31 37 36 37 38 44 45 29 29 36 49 54 57 56 57
67 61 57 49 39 28 22 18 13 15 7 2 5 13 22 23 12 14 16 16 9 11 13 13 18 19 18 21 26 36 37 37 42 39 32 23 19 49 52 56 63 64 67
61 63 60 52 40 27 21 19 20 13 7 5 12 18 25 31 26 14 17 9 2 11 17 23 23 18 20 23 26 33 29 31 37 37 24 24 47 34 45 66 73 67 68
64 65 62 48 34 27 24 25 19 9 12 7 18 21 26 29 19 4 8 8 4 12 21 26 30 27 27 23 24 26 31 28 35 33 35 30 50 29 53 63 74 66 69
66 64 52 41 32 29 30 26 16 10 5 2 12 17 26 21 15 10 8 13 2 13 26 32 33 27 30 23 17 23 38 27 39 30 31 34 52 45 69 67 73 67 63
65 62 55 47 38 36 30 24 18 11 7 6 8 13 15 17 15 13 9 11 9 14 32 35 41 30 28 27 22 23 22 30 33 33 38 43 48 55 83 69 75 76 69
66 62 55 49 41 37 32 22 19 13 12 9 1 9 13 10 17 15 15 7 9 18 29 33 34 26 26 26 23 30 29 33 34 38 43 50 50 69 78 85 93 68 67
63 60 53 47 42 35 32 24 20 13 13 8 5 3 15 10 13 13 19 15 17 22 22 27 26 29 27 29 32 33 37 36 44 46 45 55 69 77 81 78 83 82 53
60 59 56 47 40 35 29 23 18 19 16 4 14 6 7 12 16 14 16 15 22 16 19 23 25 32 38 39 37 34 41 44 46 48 49 52 60 71 77 80 76 64 70
63 61 57 46 40 35 28 28 23 17 18 13 14 10 7 7 14 18 16 17 20 19 26 26 33 37 38 41 41 43 43 43 45 43 39 43 56 62 72 72 55 46 49
63 61 56 51 40 36 28 27 26 23 17 14 19 14 11 4 13 15 18 11 11 21 27 27 39 40 45 43 41 48 45 45 40 35 40 46 56 70 69 65 51 57 44
59 60 59 53 43 37 34 24 29 27 18 23 17 19 13 9 17 22 22 20 19 27 32 32 36 40 42 38 36 42 38 33 30 25 40 53 62 56 51 50 55 49 37
64 64 63 54 46 40 38 29 30 29 25 29 16 24 12 18 24 28 25 31 31 31 35 34 33 35 30 29 29 34 32 23 32 36 49 52 54 59 56 49 47 49 34
65 66 64 57 49 45 42 35 27 34 30 30 18 30 23 30 25 20 34 36 36 36 35 33 35 34 24 25 33 37 40 36 38 44 42 45 54 58 57 48 49 40 33
70 67 64 59 55 51 47 43 32 39 33 32 23 29 34 24 28 21 28 23 32 40 29 26 29 33 34 32 35 39 38 44 41 37 42 45 50 52 46 42 35 31 34
77 71 70 65 59 56 49 47 38 44 35 34 26 22 41 33 32 33 27 23 22 26 22 20 31 38 37 37 40 50 43 40 39 47 48 47 49 51 42 34 37 32 29
80 76 74 67 60 55 51 48 44 46 37 36 30 24 42 36 33 36 33 27 25 21 14 30 31 35 37 37 38 36 32 37 37 37 38 43 46 42 42 44 32 31 32
81 80 77 70 64 59 53 53 50 48 40 42 38 33 41 37 37 36 37 36 27 18 19 31 36 40 47 37 34 34 34 37 35 29 28 33 32 37 36 42 46 37 35
75 80 77 73 70 64 60 59 56 52 43 43 47 33 36 41 39 37 30 26 37 28 21 24 30 37 44 41 39 39 45 38 35 33 25 36 36 35 35 42 44 36 38
72 73 77 77 72 68 65 64 61 58 46 38 45 37 38 43 34 39 33 22 33 40 30 23 24 36 43 42 38 39 35 41 36 33 31 36 34 36 36 33 32 30 28
73 77 80 78 72 71 66 65 67 58 49 44 46 44 38 43 41 40 37 29 29 37 38 34 25 27 41 44 42 38 32 26 34 35 34 34 38 41 40 36 35 29 22
73 77 79 80 76 72 67 67 63 59 53 49 52 48 40 44 43 43 40 37 31 40 40 38 35 29 32 45 47 43 31 28 29 28 34 39 43 46 41 35 29 23 21
74 76 81 82 79 74 65 57 64 65 59 54 56 53 49 48 45 43 43 41 36 48 43 41 44 37 37 45 55 56 42 37 34 32 40 40 40 40 35 31 29 25 18
71 70 75 80 73 73 69 64 65 68 66 59 55 63 54 51 47 47 44 37 33 45 47 46 46 41 43 43 55 63 55 49 41 39 40 43 43 42 40 36 26 18 18
48 66 65 77 72 70 70 68 67 71 72 67 63 69 63 59 48 47 45 34 33 30 46 30 32 33 32 28 41 58 58 55 51 49 48 43 41 39 35 30 22 31 27
Wind_Direction_850mb
187 184 198 201 209 213 218 239 246 276 283 313 327 332 344 333 311 318 325 323 293 254 246 238 243 217 205 189 194 187 189 183 188 179 177 174 180 181 190 181 167 172 172
167 185 192 197 209 205 208 222 232 244 284 276 307 316 335 333 314 314 308 315 300 250 216 212 194 167 168 182 184 196 187 193 187 174 163 171 172 177 177 178 161 164 174
173 182 190 194 200 200 197 205 213 228 280 146 318 319 332 350 335 315 333 323 283 188 183 174 168 160 168 173 188 190 198 188 188 180 174 149 167 160 174 174 159 159 164
182 187 190 190 197 195 192 201 203 241 262 301 321 350 8 348 346 315 336 356 112 154 155 155 150 133 145 164 168 176 184 191 188 183 194 187 169 156 144 160 159 162 163
186 189 188 186 188 186 194 187 216 233 236 313 355 4 347 351 357 350 6 27 130 162 156 159 145 141 134 154 157 158 173 177 184 193 179 171 156 163 146 134 156 167 169
180 182 179 179 179 183 194 197 201 214 250 119 350 340 1 11 38 69 38 22 160 160 162 165 162 159 146 154 155 153 167 166 181 174 182 171 154 159 149 135 144 151 156
171 171 174 174 173 183 195 195 188 229 167 164 308 340 5 25 39 31 37 27 90 146 167 167 170 165 162 161 168 157 156 158 167 163 165 140 143 148 165 145 143 139 149
168 171 173 172 176 185 195 201 183 188 150 169 14 344 15 42 41 42 44 40 99 136 155 168 171 174 161 170 161 156 163 157 163 159 154 163 155 157 164 153 148 141 155
165 166 170 175 179 189 196 187 182 190 158 200 109 50 19 56 43 38 35 69 99 136 146 160 170 172 173 158 160 162 164 162 155 155 156 150 156 164 164 161 154 155 147
164 167 172 175 181 191 191 173 180 179 179 170 118 133 48 49 35 37 32 91 100 110 143 154 151 152 152 154 157 155 153 142 144 148 149 153 161 162 165 159 160 158 161
165 169 171 175 182 190 190 178 182 184 183 158 148 135 104 57 35 55 68 104 104 90 131 135 146 147 147 153 155 149 147 150 147 145 153 152 159 158 164 153 155 149 165
167 170 171 174 180 189 196 187 182 182 183 169 141 133 145 115 86 80 72 90 126 115 130 135 144 145 144 151 158 158 149 139 137 151 156 157 161 158 151 157 159 155 158
167 172 174 177 186 190 195 189 177 185 174 177 152 138 162 118 104 90 74 75 130 138 133 137 143 146 147 150 161 171 169 162 151 144 160 161 163 167 173 168 161 161 147
173 176 177 179 187 191 196 192 177 187 172 184 163 150 155 124 106 101 89 82 107 133 130 126 136 136 141 146 161 168 168 162 152 146 149 150 154 154 159 163 154 158 160
176 181 181 181 187 190 193 196 179 185 176 186 168 153 139 125 119 124 98 97 98 118 120 125 143 148 151 161 169 159 152 140 138 133 140 145 153 153 147 144 150 151 162
180 184 185 185 187 191 191 194 184 188 179 190 176 163 155 149 135 124 124 113 107 118 122 118 135 139 135 129 143 147 150 154 153 148 146 141 143 142 142 136 145 158 166
182 187 187 190 190 192 191 194 188 189 181 191 179 164 156 160 148 140 137 155 142 120 118 134 128 129 136 140 134 141 140 134 138 147 141 142 147 159 157 156 159 171 175
185 189 189 191 193 193 193 193 190 193 181 190 189 173 162 170 169 163 156 150 152 147 129 148 148 135 131 138 143 147 136 136 139 146 147 149 151 158 165 162 172 175 175
188 192 194 190 190 192 190 191 191 195 185 191 196 182 176 182 174 176 177 171 145 150 139 153 150 149 141 139 135 145 147 145 143 145 152 157 153 157 169 177 177 175 182
186 191 191 190 190 192 190 190 192 197 193 190 200 189 181 186 179 192 190 185 188 167 168 159 165 160 153 155 154 154 151 155 159 168 171 182 180 176 177 177 185 185 192
182 189 188 192 193 191 190 191 193 200 197 189 201 193 187 194 186 193 200 199 183 176 173 182 178 182 175 168 169 172 176 178 175 185 186 180 179 180 174 171 177 178 179
177 185 186 193 194 194 193 194 196 200 199 192 200 196 187 193 192 199 205 210 190 179 179 201 198 190 191 192 183 185 189 189 195 195 190 180 179 180 178 178 177 181 186
177 184 190 192 193 196 199 198 199 195 197 194 202 199 189 194 201 203 210 212 203 184 192 198 208 210 199 194 193 192 197 196 185 180 180 177 178 179 179 182 190 200 214
177 184 189 191 193 197 203 208 198 194 196 197 206 202 193 195 199 209 219 221 214 198 197 201 206 214 205 199 197 196 198 190 181 175 177 178 182 184 188 196 205 216 225
178 182 189 192 196 200 206 206 201 194 197 196 210 204 204 202 203 215 223 230 229 212 203 208 219 216 209 202 201 197 195 192 190 187 187 190 195 199 204 212 223 243 219
172 184 192 193 194 202 204 205 202 199 197 198 208 205 205 204 211 213 212 225 227 206 209 210 211 212 221 207 206 203 199 196 195 194 200 200 204 209 216 230 208 179 193